Regional Weather Roundup
Issued by NWS

Home | Current Version | Previous Version | Text Only | Print | Product List | Glossary On
Versions: 1 2 3 4 5 6 7 8 9 10 11 12 13 14 15 16 17 18 19 20 21 22 23 24 25 26 27 28 29 30 31 32 33 34 35 36 37 38 39 40 41 42 43 44 45 46 47 48 49 50
000
ASUS46 KSEW 271010
RWRWA

WASHINGTON REGIONAL WEATHER ROUNDUP
NATIONAL WEATHER SERVICE SEATTLE WA
300 AM PDT SAT MAY 27 2017

NOTE:"FAIR" INDICATES FEW OR NO CLOUDS BELOW 12,000 FEET WITH NO
SIGNIFICANT WEATHER AND/OR OBSTRUCTIONS TO VISIBILITY.

WAZ507-509-555>559-271100-
SEATTLE, TACOMA, EVERETT, AND VICINITY

CITY           SKY/WX    TMP DP  RH WIND       PRES   REMARKS
EVERETT        CLEAR     61  47  59 E8        30.06R
BOEING FIELD   CLEAR     60  50  69 CALM      30.04R
RENTON         CLEAR     57  51  80 S5        30.04R
SEATAC AIRPORT CLEAR     63  46  54 CALM      30.05R
JBLM-MCCHORD   CLEAR     49  49  99 CALM      30.04R
PUYALLUP         N/A     52  52 100 CALM      30.04S
BREMERTON      CLEAR     49  46  90 CALM      30.05R
JBLM-FT LEWIS  CLEAR     52  45  75 VRB2      30.07R
TACOMA NARROWS CLEAR     59  47  64 CALM      30.05R
$$

WAZ001-503-506-510-514-515-271100-
NORTH INTERIOR

CITY           SKY/WX    TMP DP  RH WIND       PRES   REMARKS
BELLINGHAM     CLEAR     54  51  90 CALM      30.03R
FRIDAY HARBOR  CLEAR     49  48  97 CALM      30.04R
EASTSOUND      CLEAR     52  50  93 CALM      30.03S
PORT ANGELES   CLEAR     60  47  61 W12       30.04R
EDIZ HOOK      NOT AVBL
PORT TOWNSEND  FAIR      48  46  93 CALM      30.06R
NAS WHIDBEY    CLEAR     52  44  74 S6        30.08R
ARLINGTON      CLEAR     50  41  71 N3        30.07S
BURLINGTON     CLEAR     52  48  87 CALM      30.05R
$$

WAZ020-022-039-040-504-511-512-271100-
SOUTHWEST INTERIOR

CITY           SKY/WX    TMP DP  RH WIND       PRES   REMARKS
SHELTON        CLEAR     51  49  92 CALM      30.03R
OLYMPIA        CLEAR     52  50  93 CALM      30.04R
CHEHALIS       FAIR      50  50 100 CALM      30.04R
KELSO          CLEAR     53  50  89 CALM      30.04R
VANCOUVER      CLEAR     57  50  77 CALM      30.01R
SCAPPOOSE, OR  CLEAR     55  49  80 CALM      30.00R
PORTLAND, OR   CLEAR     59  52  77 E3        30.01R
$$

WAZ021-516-517-271100-
WASHINGTON COAST

CITY           SKY/WX    TMP DP  RH WIND       PRES   REMARKS
FORKS          CLEAR     47  46  97 N3        30.04S
HOQUIAM        FOG       52  52 100 CALM      30.04S VSB 1/4
ASTORIA, OR    FOG       52  50  93 W3        30.04R VSB 1/2
$$

WAZ019-023-024-040-567>569-271100-
CASCADE MOUNTAINS AND COLUMBIA GORGE

CITY           SKY/WX    TMP DP  RH WIND       PRES   REMARKS
STAMPEDE PASS  CLEAR     54  36  50 W3        30.13S
TROUTDALE, OR  CLEAR     57  52  83 E3        30.01R
THE DALLES, OR CLEAR     54  46  74 E6        30.02R
$$

WAZ026-027-041>044-520-521-271100-
EAST SLOPES

CITY           SKY/WX    TMP DP  RH WIND       PRES   REMARKS
OMAK           CLEAR     50  42  74 W6        30.02R
WENATCHEE      CLEAR     61  43  51 NW9       30.02R
ELLENSBURG     CLEAR     54  43  66 NW3       30.05R
YAKIMA         CLEAR     58  45  62 W5        30.04R
SUNNYSIDE ARPT SUNNY     52  43  73 CALM      30.03R
$$

WAZ028-034-035-271100-
COLUMBIA BASIN

CITY           SKY/WX    TMP DP  RH WIND       PRES   REMARKS
EPHRATA        CLEAR     58  39  49 CALM      30.01R
MOSES LAKE     CLEAR     60  44  55 W8        30.01R
PASCO          CLEAR     50  45  83 CALM      30.02R
HERMISTON, OR  CLEAR     53  44  71 E6        30.02R
$$

WAZ036>038-271100-
NORTHEAST WASHINGTON

CITY           SKY/WX    TMP DP  RH WIND       PRES   REMARKS
SPOKANE GEIGER PTCLDY    55  41  59 SW7       30.05R
SPOKANE FELTS  CLEAR     50  44  80 NE3       30.06R
FAIRCHILD AFB  CLEAR     53  41  63 CALM      30.05R
COEURDALENE,ID CLEAR     55  42  61 S10       30.06R
DEER PARK      CLEAR     52  40  63 CALM      30.05R
$$

WAZ029>033-271100-
SOUTHEAST WASHINGTON

CITY           SKY/WX    TMP DP  RH WIND       PRES   REMARKS
PULLMAN        CLEAR     50  42  74 CALM      30.10R
LEWISTON, ID   CLEAR     54  43  66 CALM      30.06R
WALLA WALLA    CLEAR     59  40  49 E9        30.03R
PENDLETON, OR  CLEAR     51  43  74 SE9       30.04S
$$



USA.gov is the U.S. government's official web portal to all federal, state and local government web resources and services.